Weather History for Baton Rouge, LA

Change the Weather History Date:

Thursday, October 24, 2013

  Actual Average Record
Temperature  
Mean Temperature 63 °F 67 °F  
Max Temperature 79 °F 79 °F 91 °F (1894)
Min Temperature 47 °F 55 °F 33 °F (1917)
Degree Days  
Heating Degree Days 2 2  
Month to date heating degree days 7 25  
Since 1 July heating degree days 7 27  
Cooling Degree Days 0 4  
Month to date cooling degree days 158 153  
Year to date cooling degree days 2603 2724  
Growing Degree Days 14 (Base 50)    
Moisture  
Dew Point 52 °F    
Average Humidity 63    
Maximum Humidity 93    
Minimum Humidity 32    
Precipitation  
Precipitation 0.00 in 0.16 in 1.42 in (1996)
Month to date precipitation 2.61 3.63  
Year to date precipitation 62.17 49.88  
Snow  
Snow 0.00 in - - ()
Month to date snowfall 0.0  
Since 1 July snowfall 0.0  
Since 1 September snowfall 0.0  
Snow Depth 0.00 in    
Sea Level Pressure  
Sea Level Pressure 30.18 in    
Wind  
Wind Speed 2 mph (SW)    
Max Wind Speed 9 mph    
Max Gust Speed 12 mph    
Visibility 10 miles    
Events      
T = Trace of Precipitation, MM = Missing Value Source: NWS Daily Summary

Daily Weather History Graph

Daily Weather History Graph

Search for Another Location

Airport:

Trip Planner

Search our weather history database for the weather conditions in past years. The results will help you decide how hot, cold, wet, or windy it might be!

Date:

Astronomy

Oct. 24, 2013 Rise Set
Actual Time 7:13 AM CDT 6:23 PM CDT
Civil Twilight 6:48 AM CDT 6:48 PM CDT
Nautical Twilight 6:20 AM CDT 7:16 PM CDT
Astronomical Twilight 5:52 AM CDT 7:44 PM CDT
Moon 10:56 PM CDT (10/24) 12:05 PM CDT (10/24)
Length of Visible Light 11h 59m
Length of Day
11h 10m
Waning Gibbous, 71% of the Moon is Illuminated
Oct 24
Waning Gibbous
Oct 26
Last Quarter
Nov 3
New
Nov 9
First Quarter
Nov 17
Full

Hourly Weather History & Observations

Time (CDT) Temp. Dew Point Humidity Pressure Visibility Wind Dir Wind Speed Gust Speed Precip Events Conditions
12:53 AM 53.1 °F 50.0 °F 89% 30.13 in 10.0 mi Calm Calm - N/A   Clear
1:53 AM 51.1 °F 48.9 °F 92% 30.13 in 10.0 mi Calm Calm - N/A   Clear
2:53 AM 50.0 °F 48.0 °F 93% 30.13 in 10.0 mi Calm Calm - N/A   Clear
3:53 AM 50.0 °F 48.0 °F 93% 30.13 in 10.0 mi Calm Calm - N/A   Clear
4:53 AM 48.9 °F 46.9 °F 93% 30.14 in 10.0 mi Calm Calm - N/A   Clear
5:53 AM 48.0 °F 46.9 °F 96% 30.16 in 10.0 mi Calm Calm - N/A   Clear
6:53 AM 48.9 °F 46.9 °F 93% 30.17 in 10.0 mi Calm Calm - N/A   Clear
7:53 AM 51.1 °F 46.9 °F 86% 30.19 in 10.0 mi East 3.5 mph - N/A   Clear
8:53 AM 60.1 °F 52.0 °F 75% 30.21 in 10.0 mi SSE 4.6 mph - N/A   Clear
9:53 AM 68.0 °F 52.0 °F 56% 30.24 in 10.0 mi Variable 3.5 mph - N/A   Clear
10:53 AM 71.1 °F 50.0 °F 47% 30.23 in 10.0 mi Calm Calm - N/A   Clear
11:53 AM 73.9 °F 51.1 °F 45% 30.22 in 10.0 mi Calm Calm - N/A   Clear
12:53 PM 77.0 °F 50.0 °F 39% 30.21 in 10.0 mi East 4.6 mph - N/A   Clear
1:53 PM 79.0 °F 46.9 °F 32% 30.19 in 10.0 mi West 6.9 mph - N/A   Clear
2:53 PM 78.1 °F 51.1 °F 39% 30.17 in 10.0 mi West 8.1 mph - N/A   Clear
3:53 PM 79.0 °F 52.0 °F 39% 30.16 in 10.0 mi WSW 6.9 mph - N/A   Clear
4:53 PM 78.1 °F 52.0 °F 40% 30.16 in 10.0 mi WSW 5.8 mph - N/A   Clear
5:53 PM 75.0 °F 54.0 °F 48% 30.16 in 10.0 mi West 3.5 mph - N/A   Clear
6:53 PM 66.9 °F 59.0 °F 76% 30.17 in 10.0 mi Calm Calm - N/A   Clear
7:53 PM 63.0 °F 57.9 °F 84% 30.18 in 10.0 mi Calm Calm - N/A   Clear
8:53 PM 61.0 °F 57.9 °F 90% 30.20 in 10.0 mi Calm Calm - N/A   Clear
9:53 PM 60.1 °F 57.0 °F 90% 30.21 in 10.0 mi Calm Calm - N/A   Clear
10:53 PM 57.9 °F 55.9 °F 93% 30.22 in 9.0 mi Calm Calm - N/A   Clear
11:53 PM 60.1 °F 55.9 °F 86% 30.23 in 10.0 mi Calm Calm - N/A   Clear